Temperature
25 23 23 23 24 25 24 24 23 24 24 23 22 21 21 21 21 20 20 20 20 21 21 21 21 21 20 20 20 20 19 19 19 19 19 19 19 18 18 18 18 18 18 18
23 24 25 25 24 24 24 24 24 24 24 23 22 21 21 21 21 21 21 20 21 21 21 21 21 21 20 20 20 19 19 19 19 19 19 19 19 19 18 18 18 18 18 18
25 25 25 25 25 25 25 24 24 24 23 23 23 22 21 21 21 21 21 21 21 21 21 21 21 21 20 20 20 20 20 19 19 19 19 19 19 19 18 18 18 18 18 18
24 25 25 26 25 25 24 25 24 24 23 21 23 21 21 20 20 21 21 21 21 21 21 21 21 21 21 21 20 20 20 19 19 19 19 19 19 19 19 18 18 18 18 18
25 25 26 26 26 26 25 25 24 23 22 21 22 21 21 20 20 20 21 21 21 21 22 22 21 21 21 21 20 20 20 20 19 19 19 19 19 19 19 18 18 18 18 18
24 25 26 26 26 26 25 23 22 20 20 22 22 22 21 20 20 21 21 21 22 22 22 22 22 21 21 21 21 20 20 20 19 19 19 19 19 19 19 19 19 18 18 18
25 25 25 26 26 25 24 22 21 22 21 21 21 21 21 22 21 21 21 22 22 22 22 22 22 21 21 21 21 20 20 20 20 19 19 19 19 19 19 19 19 18 18 18
24 24 25 25 25 24 23 22 22 22 21 21 21 21 22 22 22 22 23 23 23 22 22 22 22 22 22 21 21 21 20 20 20 20 19 19 19 19 19 19 18 18 18 18
23 24 25 25 25 24 23 22 21 20 21 21 21 21 22 22 21 21 21 22 22 22 22 22 22 22 22 22 21 21 21 20 20 20 20 19 19 19 19 19 18 18 18 18
22 24 25 25 25 24 23 20 19 20 21 22 22 22 21 22 21 21 20 21 22 22 22 22 22 22 22 22 22 21 21 20 20 20 20 19 19 19 19 19 19 18 18 18
22 23 24 24 24 23 23 21 18 17 19 20 21 21 22 21 21 20 20 21 22 22 22 22 22 22 22 22 21 21 21 20 20 20 20 20 19 19 19 19 19 18 18 18
20 19 21 23 23 23 23 21 19 21 20 18 19 20 22 20 20 20 21 21 22 22 23 22 22 22 22 22 21 21 21 21 20 20 20 20 19 19 19 19 19 18 18 18
20 19 21 22 22 22 22 21 19 18 17 17 19 21 21 20 20 21 21 21 21 22 22 22 22 22 22 21 21 21 21 21 20 20 20 19 19 19 19 19 18 18 18 18
19 18 20 21 21 21 22 21 20 19 19 18 19 20 20 20 19 20 20 21 21 21 21 22 22 22 22 21 21 21 21 20 20 20 20 19 19 19 19 19 18 18 18 18
19 19 20 20 21 21 22 21 21 21 20 20 20 20 20 19 19 19 20 20 21 21 21 21 22 22 21 21 21 21 20 20 20 20 19 19 19 19 19 18 18 18 18 18
16 18 19 20 21 21 21 21 21 21 20 20 20 19 19 19 19 19 19 20 20 20 21 21 21 21 21 21 21 21 21 20 20 20 19 19 19 18 18 18 18 18 18 17
15 17 18 19 19 21 20 20 20 20 19 20 20 19 18 18 18 19 19 19 19 20 21 21 21 21 21 21 21 21 20 20 20 19 19 19 18 18 18 18 18 18 17 17
15 15 15 16 19 20 19 19 20 20 19 19 19 18 18 18 19 19 19 19 19 20 21 21 21 21 21 21 20 20 20 20 20 19 19 18 18 18 18 17 17 17 17 17
14 15 14 15 17 18 19 19 19 19 19 18 18 18 18 18 19 18 19 19 19 20 20 20 20 21 20 20 20 20 20 19 19 19 18 18 18 17 17 17 17 17 17 17
13 13 14 15 17 18 19 19 19 19 18 18 18 17 17 18 17 17 19 19 19 19 20 20 19 19 19 19 19 19 19 19 19 18 18 18 17 17 17 17 16 16 16 16
15 14 14 15 16 17 17 18 19 19 18 18 18 18 17 17 18 19 19 19 19 19 19 19 19 19 18 18 18 18 18 18 18 18 18 17 17 17 17 17 16 16 16 16
14 14 14 13 16 16 17 17 17 17 18 18 18 18 18 18 18 19 19 19 19 19 19 18 18 18 18 18 18 18 18 18 17 17 17 17 17 17 16 16 16 16 15 15
13 13 13 14 15 15 16 17 18 18 18 18 18 18 18 18 18 18 18 18 18 18 18 18 18 17 17 17 17 17 17 17 17 16 16 16 16 16 16 16 15 15 15 15
13 12 12 13 14 15 16 17 18 18 18 18 18 18 18 18 18 17 17 17 17 17 17 17 17 17 17 17 17 16 16 16 16 16 16 16 16 16 15 15 15 15 15 15
13 12 12 13 13 15 16 17 17 17 18 18 18 18 18 18 17 17 17 17 16 16 16 16 16 16 16 16 16 16 16 15 15 15 15 15 15 15 15 15 15 15 15 14
11 12 12 13 14 13 15 17 17 17 17 17 17 17 17 17 17 17 16 16 16 16 16 16 16 16 16 16 16 15 15 15 15 15 15 15 15 14 14 14 14 14 14 14
Wind_Speed
3 4 2 6 6 4 4 3 2 3 2 3 3 4 4 5 6 6 6 5 6 6 4 4 4 4 5 5 5 4 4 3 4 3 3 2 1 1 1 1 2 3 3 4
5 2 6 4 5 4 4 2 1 2 1 3 1 2 3 6 8 9 9 9 8 5 4 4 5 5 5 5 5 4 4 3 3 3 2 2 2 1 1 0 0 1 2 3
5 5 2 4 2 2 2 5 4 2 1 3 3 3 3 4 5 5 7 7 7 9 8 7 7 6 6 6 6 5 4 4 3 3 3 3 3 2 2 1 1 1 1 2
4 3 2 2 2 4 4 4 5 3 3 1 1 3 6 4 4 6 7 8 9 9 8 8 7 7 8 7 6 5 4 3 3 4 3 3 3 2 1 1 0 1 0 1
4 3 2 3 5 6 5 2 4 3 3 2 1 1 7 0 5 9 9 10 10 10 10 10 10 10 8 7 6 5 4 3 3 3 4 3 2 1 1 0 0 1 1 0
5 3 3 4 2 4 5 7 7 6 5 1 2 3 6 4 7 7 9 10 10 9 10 10 9 7 6 6 6 6 5 4 3 4 3 4 4 3 2 1 1 1 1 1
4 3 2 2 3 3 6 6 4 4 3 5 2 2 7 6 6 7 8 10 10 9 9 9 10 9 8 8 7 6 6 5 4 4 4 4 4 4 4 3 2 1 1 1
2 4 3 1 4 5 4 8 7 5 5 4 1 4 6 5 4 3 4 5 7 9 9 10 11 10 10 9 8 7 7 6 5 5 5 4 4 3 3 3 2 2 2 2
5 5 4 2 2 7 5 3 5 7 2 1 5 6 7 4 5 3 1 2 6 8 9 9 9 9 9 8 8 8 7 6 5 5 5 4 4 4 4 3 2 2 3 2
7 3 3 2 5 5 5 8 6 6 5 2 5 4 4 6 5 3 1 2 4 6 7 8 8 8 8 8 7 7 7 6 5 5 5 5 4 4 3 2 3 3 3 2
5 4 3 3 2 2 3 5 6 5 5 6 2 6 4 5 5 4 4 3 4 6 8 8 8 8 7 6 6 6 6 5 5 5 4 4 3 3 2 3 3 3 3 3
3 5 1 3 3 1 4 5 6 5 3 4 4 6 3 2 3 2 2 1 2 4 6 7 7 7 7 7 7 7 7 6 6 5 5 4 3 2 3 4 4 3 3 3
5 6 2 4 4 4 3 2 4 6 5 5 5 6 4 4 3 2 1 0 1 3 4 5 5 6 7 7 7 7 6 6 5 5 5 4 3 4 4 4 4 4 3 3
5 5 6 8 7 3 1 1 3 5 4 4 6 6 6 5 3 3 2 1 2 3 4 5 5 5 6 6 7 7 6 6 6 5 5 5 5 5 5 4 4 4 3 4
5 4 3 3 3 3 2 2 4 4 6 7 6 5 5 4 2 2 0 1 3 3 3 4 4 4 4 5 5 6 6 6 6 6 6 6 5 4 4 4 4 3 3 4
4 4 3 0 0 1 1 2 4 3 3 4 3 3 4 2 1 1 1 2 2 2 3 3 4 4 4 5 5 5 5 5 6 6 6 5 4 4 4 4 4 3 3 3
2 5 4 3 3 1 2 3 3 2 2 4 5 5 2 1 1 1 1 0 1 1 2 3 3 4 4 4 4 5 4 4 5 6 5 4 4 5 5 4 3 4 4 4
6 5 4 2 2 4 6 3 2 3 1 2 3 2 2 3 2 1 1 2 1 0 1 2 2 2 1 1 2 2 3 4 5 4 4 3 4 4 4 4 4 5 4 4
4 7 4 4 3 3 5 2 3 3 3 2 3 1 1 1 3 3 1 2 2 2 1 1 1 2 2 2 2 3 2 3 3 3 3 3 4 4 4 4 5 5 4 4
5 5 6 4 4 6 7 3 2 4 3 3 3 4 2 2 1 3 1 1 1 1 2 2 2 3 2 1 3 4 2 2 2 3 3 3 3 4 4 5 5 4 4 4
3 4 4 4 3 6 5 4 1 4 6 3 4 4 4 4 5 4 2 1 1 2 2 3 3 3 1 1 3 2 1 2 3 2 2 2 3 4 4 4 4 3 3 3
3 3 3 4 3 6 3 1 3 5 3 2 3 3 4 3 2 3 3 2 2 2 2 3 3 2 2 2 3 1 1 3 2 1 2 2 3 3 3 3 4 4 3 4
3 5 5 6 6 5 3 4 4 3 1 2 2 3 4 3 3 3 2 2 1 1 1 2 2 2 2 2 2 1 2 2 1 1 2 3 3 2 2 3 4 3 3 4
2 2 2 1 4 4 3 2 1 1 1 1 2 2 4 3 3 2 2 2 1 0 1 1 2 1 1 2 1 1 2 2 1 1 2 2 2 3 3 2 3 4 4 4
4 2 2 2 4 4 4 3 2 1 1 1 1 1 3 4 4 3 2 2 2 1 0 0 1 1 2 2 2 3 2 1 1 2 2 2 2 3 3 3 3 4 4 5
4 5 5 5 6 4 5 5 3 1 1 1 1 1 2 4 5 4 3 2 2 1 1 0 0 1 2 2 3 3 2 1 1 2 2 2 2 3 3 3 4 4 4 5
Wind_Direction
65 80 189 211 194 182 169 172 229 251 214 145 192 225 214 188 184 191 198 200 200 209 201 164 153 146 138 134 133 137 134 129 120 112 122 125 144 183 214 230 217 206 199 184
46 267 233 191 160 145 154 159 244 325 83 141 169 265 228 198 205 201 202 206 208 199 181 172 161 154 154 158 157 151 153 149 146 140 135 138 137 156 193 254 290 230 205 191
193 237 189 144 149 159 201 183 208 206 45 66 89 322 242 229 213 209 208 208 204 199 194 188 177 175 169 171 176 178 172 168 165 148 118 104 81 56 42 43 20 316 211 183
224 240 166 158 195 170 253 222 182 158 114 285 115 286 279 235 235 227 222 211 207 203 195 191 184 181 184 186 177 170 165 163 160 148 144 146 152 169 215 205 236 0 33 152
237 202 168 201 214 182 213 118 122 113 114 41 18 168 293 261 247 245 231 221 213 204 194 191 191 190 189 182 175 172 160 161 165 157 159 155 165 186 184 122 43 346 349 348
237 235 202 209 206 160 123 73 59 53 68 353 254 169 284 240 234 248 229 222 213 202 195 191 188 181 181 176 171 167 163 173 173 170 171 173 180 179 169 194 227 289 326 334
317 314 287 149 79 53 96 95 45 10 9 259 265 191 252 261 248 237 228 220 209 195 187 184 179 177 180 180 178 172 170 182 183 179 185 188 185 179 189 203 211 226 265 273
171 287 267 186 167 171 158 138 154 186 222 273 322 240 258 284 285 262 227 209 192 186 186 187 185 183 183 184 181 177 178 191 188 186 193 190 184 186 202 207 205 216 234 242
172 247 283 244 180 139 140 158 157 134 148 302 287 292 306 336 356 8 83 155 186 187 186 189 186 183 183 184 185 183 184 191 194 191 188 190 195 198 208 211 210 226 238 239
161 213 282 301 72 45 128 142 103 117 143 244 301 296 281 299 307 311 264 208 201 185 180 179 183 186 187 184 181 173 177 188 199 195 196 200 200 204 207 203 223 234 239 238
143 159 301 36 110 175 87 86 98 107 140 153 235 274 241 247 261 254 250 232 204 188 185 183 181 180 178 173 172 173 179 185 196 197 196 197 201 201 201 214 234 238 242 232
132 127 220 264 272 208 137 146 143 146 195 165 175 260 298 257 269 258 261 239 203 191 181 175 170 164 165 169 172 179 183 190 201 195 189 196 195 195 212 229 238 238 237 237
131 115 94 343 342 14 68 100 125 122 117 150 170 257 335 3 355 339 309 223 138 148 153 153 154 162 170 174 175 178 185 193 192 183 187 194 196 204 219 234 242 238 235 242
115 109 160 194 213 202 192 159 150 127 146 191 212 240 311 334 335 336 354 84 114 127 143 147 157 167 173 177 179 183 194 195 188 183 190 201 211 213 218 224 232 231 229 235
101 131 166 197 209 175 180 201 185 177 183 187 216 214 252 265 250 264 280 94 109 117 136 156 163 171 174 177 184 189 195 190 183 181 195 212 218 215 214 217 226 231 234 243
76 136 134 86 337 158 178 248 196 189 174 181 175 247 264 280 34 18 48 104 123 142 157 155 156 165 178 185 190 194 197 190 177 188 207 212 209 214 219 220 223 232 244 253
95 126 127 216 288 40 269 247 190 182 204 172 193 228 246 295 289 249 225 79 131 139 161 163 177 191 192 194 192 195 195 175 178 199 213 211 209 218 226 228 226 233 239 242
137 117 126 139 101 213 240 254 172 170 197 185 193 215 215 216 210 178 139 151 171 73 139 172 174 169 166 172 175 176 159 166 178 196 211 211 211 222 227 227 236 240 237 239
146 134 121 125 162 262 282 250 168 176 246 228 182 172 93 85 61 9 348 144 170 189 193 170 159 140 134 140 147 129 131 158 172 197 211 212 208 218 226 235 245 243 240 245
63 96 114 125 157 219 238 267 262 144 244 255 191 183 178 108 99 266 266 146 134 92 85 93 87 86 94 111 113 115 134 151 204 230 231 219 209 214 226 239 247 249 243 248
49 58 108 148 198 253 263 294 50 163 236 239 199 195 189 189 202 211 170 104 91 83 87 89 86 82 72 74 106 124 147 236 252 259 266 249 234 227 222 231 242 250 251 259
163 145 160 147 182 247 299 46 168 223 257 219 201 196 179 173 160 141 128 114 86 80 78 81 83 62 36 69 101 106 265 272 283 289 290 283 270 256 247 229 238 242 239 251
188 190 183 187 213 250 264 235 250 210 214 246 219 200 164 151 155 136 130 125 97 97 97 91 106 79 19 35 98 107 300 313 338 344 304 290 292 282 257 235 235 240 233 243
265 135 131 261 277 290 299 305 321 181 214 245 192 172 154 155 159 149 150 158 149 72 61 78 97 99 334 338 352 288 297 329 5 327 300 299 301 295 283 259 241 240 243 245
224 167 150 251 283 326 323 304 295 344 33 84 74 136 158 154 158 158 159 171 185 220 302 99 152 218 282 308 315 306 298 332 343 317 309 309 297 284 290 287 264 250 242 237
213 188 181 225 235 216 258 271 278 309 289 189 126 112 144 155 161 155 165 186 190 206 201 115 271 250 260 275 296 301 295 259 249 295 299 297 291 285 281 287 300 290 269 271
Height
1496 1502 1508 1506 1504 1505 1509 1514 1516 1512 1505 1509 1513 1513 1511 1511 1513 1514 1515 1516 1517 1517 1520 1521 1523 1524 1525 1527 1528 1530 1531 1533 1534 1535 1537 1538 1539 1541 1542 1543 1543 1544 1544 1545
1502 1505 1498 1497 1500 1503 1508 1514 1515 1510 1505 1509 1514 1514 1511 1510 1510 1511 1512 1514 1515 1517 1519 1520 1522 1524 1525 1527 1529 1530 1532 1533 1535 1536 1537 1539 1540 1541 1542 1543 1543 1544 1544 1545
1502 1499 1494 1497 1501 1505 1507 1512 1512 1513 1510 1510 1514 1518 1513 1510 1509 1511 1511 1512 1514 1515 1517 1519 1521 1523 1525 1526 1528 1530 1532 1533 1535 1537 1538 1539 1540 1541 1542 1542 1543 1544 1544 1544
1498 1494 1495 1497 1501 1502 1511 1501 1505 1509 1518 1525 1519 1534 1516 1511 1510 1509 1509 1510 1511 1513 1515 1517 1519 1521 1523 1526 1528 1530 1531 1533 1535 1537 1538 1539 1540 1540 1541 1542 1542 1543 1543 1543
1497 1493 1494 1498 1497 1497 1501 1498 1504 1510 1518 1527 1524 1532 1524 1513 1512 1507 1506 1506 1508 1510 1512 1514 1517 1520 1522 1525 1527 1529 1531 1533 1535 1536 1537 1538 1539 1540 1541 1542 1542 1542 1542 1542
1492 1490 1490 1491 1490 1493 1496 1503 1511 1519 1527 1538 1527 1532 1528 1516 1508 1502 1501 1502 1503 1506 1509 1512 1515 1519 1521 1524 1526 1528 1530 1532 1534 1535 1536 1538 1539 1539 1540 1541 1541 1541 1541 1542
1497 1492 1488 1488 1493 1495 1499 1517 1537 1540 1547 1543 1527 1529 1524 1503 1499 1497 1496 1497 1499 1503 1506 1509 1513 1516 1519 1522 1525 1527 1529 1531 1533 1534 1535 1537 1537 1538 1539 1539 1540 1540 1540 1541
1507 1508 1491 1488 1491 1499 1502 1512 1535 1546 1549 1541 1529 1529 1512 1498 1495 1494 1494 1495 1497 1500 1503 1506 1510 1513 1517 1520 1523 1525 1528 1530 1532 1533 1534 1535 1536 1537 1538 1538 1539 1539 1539 1539
1507 1506 1488 1486 1486 1491 1503 1511 1512 1530 1536 1541 1534 1522 1506 1496 1494 1493 1493 1494 1496 1498 1501 1504 1508 1511 1515 1518 1522 1524 1526 1529 1530 1532 1533 1534 1535 1536 1536 1537 1537 1537 1538 1538
1495 1502 1492 1487 1487 1491 1495 1505 1519 1531 1543 1546 1536 1527 1520 1503 1499 1495 1494 1494 1495 1497 1499 1502 1506 1510 1514 1517 1520 1522 1525 1527 1529 1530 1532 1532 1534 1535 1535 1535 1535 1536 1536 1536
1491 1501 1499 1494 1496 1500 1501 1508 1518 1530 1531 1544 1545 1532 1503 1500 1497 1495 1493 1493 1494 1495 1497 1500 1504 1508 1512 1515 1518 1521 1523 1525 1527 1528 1529 1531 1532 1533 1534 1534 1534 1534 1534 1534
1492 1502 1509 1500 1492 1491 1494 1502 1512 1524 1532 1536 1539 1529 1496 1496 1494 1493 1493 1493 1493 1495 1497 1500 1503 1506 1509 1513 1515 1518 1520 1523 1525 1526 1527 1528 1529 1530 1531 1531 1531 1532 1532 1532
1491 1503 1516 1513 1507 1499 1499 1502 1506 1515 1528 1536 1536 1522 1496 1494 1493 1493 1493 1493 1493 1495 1497 1499 1502 1504 1507 1510 1513 1516 1518 1520 1522 1524 1525 1526 1527 1528 1528 1528 1528 1529 1529 1529
1486 1501 1510 1516 1511 1503 1503 1503 1504 1511 1524 1529 1523 1514 1501 1497 1495 1493 1493 1493 1494 1495 1497 1498 1501 1503 1506 1509 1511 1514 1516 1518 1520 1521 1522 1523 1524 1525 1525 1525 1525 1525 1525 1525
1487 1500 1500 1500 1497 1498 1500 1500 1502 1504 1509 1515 1512 1509 1501 1497 1496 1494 1493 1493 1494 1495 1497 1498 1500 1502 1504 1507 1509 1511 1513 1515 1517 1518 1519 1520 1521 1522 1522 1522 1522 1522 1522 1522
1490 1499 1500 1501 1498 1497 1500 1498 1498 1500 1501 1504 1504 1505 1496 1495 1495 1494 1493 1493 1494 1495 1496 1498 1500 1502 1503 1505 1507 1509 1511 1513 1514 1515 1516 1517 1518 1518 1519 1519 1519 1518 1518 1518
1495 1499 1506 1510 1503 1500 1507 1500 1498 1499 1498 1499 1504 1500 1495 1495 1494 1494 1494 1494 1495 1495 1496 1497 1499 1501 1502 1504 1505 1507 1508 1510 1512 1512 1513 1514 1514 1515 1515 1515 1515 1515 1514 1514
1495 1502 1510 1513 1509 1516 1505 1493 1493 1495 1496 1495 1495 1494 1494 1493 1493 1494 1494 1494 1495 1496 1496 1497 1498 1500 1502 1503 1505 1506 1507 1508 1509 1510 1510 1511 1511 1512 1512 1512 1512 1511 1511 1510
1489 1498 1511 1518 1518 1512 1500 1492 1493 1496 1498 1493 1493 1493 1493 1493 1493 1494 1494 1494 1495 1496 1496 1497 1498 1499 1500 1502 1503 1504 1505 1506 1506 1507 1507 1508 1508 1508 1508 1508 1508 1508 1507 1506
1492 1495 1507 1516 1516 1517 1501 1490 1488 1492 1499 1492 1491 1491 1492 1492 1498 1497 1494 1495 1495 1496 1496 1497 1497 1498 1499 1501 1501 1502 1503 1504 1504 1504 1504 1505 1505 1504 1504 1504 1504 1504 1503 1503
1500 1504 1509 1514 1513 1507 1494 1489 1488 1502 1499 1489 1489 1489 1490 1491 1492 1493 1493 1494 1495 1495 1496 1496 1497 1498 1499 1499 1500 1501 1501 1501 1501 1501 1501 1501 1501 1500 1500 1500 1501 1500 1500 1499
1503 1506 1510 1513 1514 1509 1491 1490 1493 1492 1487 1486 1487 1487 1487 1488 1490 1491 1492 1493 1494 1495 1495 1496 1497 1497 1498 1498 1499 1499 1499 1499 1499 1499 1499 1498 1498 1497 1497 1496 1496 1496 1495 1494
1500 1500 1501 1503 1502 1492 1489 1489 1487 1487 1486 1485 1485 1485 1486 1487 1489 1490 1491 1492 1493 1494 1495 1496 1496 1497 1497 1497 1497 1496 1496 1496 1496 1496 1495 1495 1494 1493 1493 1492 1491 1491 1490 1489
1496 1495 1497 1498 1493 1489 1488 1487 1486 1486 1485 1485 1484 1485 1486 1487 1488 1489 1490 1491 1492 1493 1494 1495 1495 1495 1496 1496 1495 1494 1494 1493 1492 1492 1492 1491 1490 1489 1489 1488 1487 1486 1485 1484
1493 1494 1496 1496 1491 1489 1487 1486 1486 1485 1485 1484 1484 1485 1485 1486 1487 1488 1489 1490 1491 1492 1493 1494 1494 1493 1494 1493 1493 1492 1491 1490 1489 1489 1488 1487 1486 1485 1484 1483 1482 1481 1480 1480
1489 1491 1493 1492 1488 1488 1487 1486 1486 1484 1484 1483 1483 1483 1484 1485 1485 1487 1488 1489 1490 1490 1491 1492 1492 1492 1492 1491 1490 1490 1489 1488 1487 1486 1485 1483 1483 1481 1480 1479 1478 1477 1476 1475